| time (UTC) | temp C | wind direction | speed KPH | gust KPH | rain 1hr cm | rain 24hr cm | rain mn cm | humidity % | barometer mb |
| 20260508074604 | 7 | 271 | 3.2 | 14.5 | 0.00 | 0.00 | 0.00 | 83 | 1010.9 |
| 20260508073058 | 7 | 257 | 6.4 | 16.1 | 0.00 | 0.00 | 0.00 | 82 | 1010.8 |
| 20260508071552 | 8 | 241 | 4.8 | 16.1 | 0.00 | 0.00 | 0.00 | 80 | 1010.9 |
| 20260508070052 | 8 | 273 | 11.3 | 27.4 | 0.00 | 0.00 | 0.00 | 76 | 1011.0 |
| 20260508064555 | 8 | 238 | 8.0 | 22.5 | 0.00 | 0.00 | 0.00 | 74 | 1010.9 |
| 20260508063048 | 8 | 277 | 4.8 | 11.3 | 0.00 | 0.00 | 0.00 | 74 | 1011.0 |
| 20260508061545 | 8 | 254 | 3.2 | 8.0 | 0.00 | 0.00 | 0.00 | 75 | 1011.1 |
| 20260508060042 | 8 | 269 | 1.6 | 6.4 | 0.00 | 0.00 | 0.00 | 76 | 1011.1 |
| 20260508054546 | 8 | 261 | 0.0 | 4.8 | 0.00 | 0.00 | 0.00 | 76 | 1011.1 |
| 20260508053041 | 8 | 250 | 0.0 | 4.8 | 0.00 | 0.00 | 0.00 | 75 | 1011.4 |
| 20260508051539 | 8 | 254 | 1.6 | 4.8 | 0.00 | 0.00 | 0.00 | 74 | 1011.6 |
| 20260508050049 | 8 | 259 | 0.0 | 6.4 | 0.00 | 0.00 | 0.00 | 74 | 1011.5 |
| 20260508044533 | 8 | 262 | 1.6 | 9.7 | 0.00 | 0.00 | 0.00 | 74 | 1011.6 |
| 20260508043031 | 8 | 263 | 1.6 | 9.7 | 0.00 | 0.00 | 0.00 | 73 | 1011.5 |
| 20260508041529 | 8 | 282 | 3.2 | 11.3 | 0.00 | 0.00 | 0.00 | 73 | 1011.6 |
| 20260508040041 | 8 | 260 | 3.2 | 9.7 | 0.00 | 0.00 | 0.00 | 73 | 1011.6 |
| 20260508034537 | 8 | 272 | 3.2 | 11.3 | 0.00 | 0.00 | 0.00 | 72 | 1011.7 |
| 20260508033025 | 8 | 266 | 1.6 | 11.3 | 0.00 | 0.00 | 0.00 | 73 | 1011.8 |
| 20260508031524 | 7 | 225 | 1.6 | 6.4 | 0.00 | 0.00 | 0.00 | 76 | 1011.7 |
| 20260508030025 | 6 | 299 | 0.0 | 0.0 | 0.00 | 0.00 | 0.00 | 81 | 1011.8 |
| 20260508024526 | 6 | 299 | 0.0 | 0.0 | 0.00 | 0.00 | 0.00 | 81 | 1011.8 |
| 20260508023024 | 6 | 299 | 0.0 | 0.0 | 0.00 | 0.00 | 0.00 | 79 | 1011.7 |
| 20260508021523 | 6 | 299 | 0.0 | 0.0 | 0.00 | 0.00 | 0.00 | 78 | 1011.5 |
| 20260508020023 | 6 | 299 | 0.0 | 0.0 | 0.00 | 0.00 | 0.00 | 77 | 1011.5 |
| 20260508014522 | 6 | 299 | 0.0 | 0.0 | 0.00 | 0.00 | 0.00 | 74 | 1011.3 |
| 20260508013021 | 7 | 299 | 0.0 | 0.0 | 0.00 | 0.00 | 0.00 | 72 | 1011.4 |
| 20260508011522 | 7 | 299 | 0.0 | 0.0 | 0.00 | 0.00 | 0.00 | 68 | 1011.2 |
| 20260508010021 | 8 | 299 | 0.0 | 0.0 | 0.00 | 0.00 | 0.00 | 63 | 1011.1 |
| 20260508004521 | 10 | 299 | 0.0 | 0.0 | 0.00 | 0.00 | 0.00 | 59 | 1011.1 |
| 20260508003020 | 10 | 299 | 0.0 | 3.2 | 0.00 | 0.00 | 0.00 | 59 | 1011.1 |
| 20260508001620 | 10 | 328 | 4.8 | 12.9 | 0.00 | 0.00 | 0.00 | 52 | 1010.9 |
| 20260508000018 | 11 | 315 | 6.4 | 14.5 | 0.00 | 0.00 | 0.00 | 52 | 1010.8 |
| 20260507234530 | 11 | 284 | 4.8 | 17.7 | 0.00 | 0.00 | 0.00 | 52 | 1010.7 |
| 20260507233022 | 11 | 309 | 3.2 | 17.7 | 0.00 | 0.00 | 0.00 | 51 | 1010.7 |
| 20260507231517 | 11 | 277 | 8.0 | 22.5 | 0.00 | 0.00 | 0.00 | 50 | 1010.6 |
| 20260507230018 | 12 | 313 | 6.4 | 20.9 | 0.00 | 0.00 | 0.00 | 49 | 1010.8 |
| 20260507224515 | 12 | 305 | 11.3 | 25.7 | 0.00 | 0.00 | 0.00 | 49 | 1010.8 |
| 20260507223015 | 12 | 274 | 8.0 | 20.9 | 0.00 | 0.00 | 0.00 | 49 | 1010.7 |
| 20260507221513 | 12 | 330 | 11.3 | 22.5 | 0.00 | 0.00 | 0.00 | 49 | 1010.8 |
| 20260507220013 | 12 | 294 | 4.8 | 19.3 | 0.00 | 0.00 | 0.00 | 52 | 1010.7 |
| 20260507214512 | 11 | 286 | 4.8 | 22.5 | 0.00 | 0.00 | 0.00 | 56 | 1010.6 |
| 20260507213020 | 11 | 347 | 6.4 | 29.0 | 0.00 | 0.00 | 0.00 | 57 | 1010.5 |
| 20260507211511 | 11 | 311 | 6.4 | 20.9 | 0.00 | 0.00 | 0.00 | 58 | 1010.5 |
| 20260507210011 | 11 | 331 | 12.9 | 24.1 | 0.00 | 0.00 | 0.00 | 61 | 1010.3 |
| 20260507204510 | 11 | 276 | 9.7 | 17.7 | 0.00 | 0.00 | 0.00 | 61 | 1010.2 |
| 20260507203009 | 11 | 224 | 9.7 | 24.1 | 0.00 | 0.00 | 0.00 | 57 | 1010.0 |
| 20260507201508 | 12 | 290 | 9.7 | 22.5 | 0.00 | 0.00 | 0.00 | 54 | 1010.0 |
| 20260507200010 | 11 | 246 | 9.7 | 24.1 | 0.00 | 0.00 | 0.00 | 57 | 1009.9 |
| 20260507194521 | 12 | 253 | 8.0 | 25.7 | 0.00 | 0.00 | 0.00 | 52 | 1010.0 |
| 20260507193007 | 12 | 315 | 8.0 | 19.3 | 0.00 | 0.00 | 0.00 | 55 | 1010.2 |
| 20260507191504 | 12 | 319 | 9.7 | 19.3 | 0.00 | 0.00 | 0.00 | 53 | 1010.2 |
| 20260507190116 | 12 | 309 | 3.2 | 17.7 | 0.00 | 0.00 | 0.00 | 57 | 1010.2 |
| 20260507184502 | 12 | 264 | 8.0 | 20.9 | 0.00 | 0.00 | 0.00 | 54 | 1010.4 |
| 20260507183116 | 12 | 288 | 6.4 | 17.7 | 0.00 | 0.00 | 0.00 | 56 | 1010.4 |
| 20260507181601 | 12 | 284 | 8.0 | 24.1 | 0.00 | 0.00 | 0.00 | 55 | 1010.5 |
| 20260507180104 | 11 | 261 | 11.3 | 24.1 | 0.00 | 0.00 | 0.00 | 58 | 1010.5 |
| 20260507174603 | 11 | 243 | 8.0 | 17.7 | 0.00 | 0.00 | 0.00 | 57 | 1010.5 |
| 20260507173103 | 12 | 245 | 4.8 | 16.1 | 0.00 | 0.00 | 0.00 | 58 | 1010.6 |
| 20260507171553 | 11 | 287 | 9.7 | 24.1 | 0.00 | 0.00 | 0.00 | 57 | 1010.6 |
| 20260507170053 | 11 | 318 | 8.0 | 19.3 | 0.00 | 0.00 | 0.00 | 55 | 1010.7 |
| 20260507164625 | 11 | 220 | 8.0 | 16.1 | 0.00 | 0.00 | 0.00 | 57 | 1010.7 |
| 20260507163053 | 11 | 269 | 4.8 | 20.9 | 0.00 | 0.00 | 0.00 | 60 | 1010.7 |
| 20260507161555 | 11 | 236 | 8.0 | 16.1 | 0.00 | 0.00 | 0.00 | 56 | 1010.8 |
| 20260507160046 | 11 | 252 | 8.0 | 17.7 | 0.00 | 0.00 | 0.00 | 56 | 1010.8 |
| 20260507154542 | 11 | 249 | 8.0 | 16.1 | 0.00 | 0.00 | 0.00 | 58 | 1010.9 |
| 20260507153042 | 10 | 288 | 4.8 | 19.3 | 0.00 | 0.00 | 0.00 | 61 | 1010.9 |
| 20260507151538 | 11 | 268 | 6.4 | 16.1 | 0.00 | 0.00 | 0.00 | 62 | 1011.0 |
| 20260507150038 | 10 | 282 | 3.2 | 16.1 | 0.00 | 0.00 | 0.00 | 64 | 1011.2 |
| 20260507144537 | 10 | 336 | 4.8 | 14.5 | 0.00 | 0.00 | 0.00 | 63 | 1011.1 |
| 20260507143037 | 10 | 298 | 6.4 | 14.5 | 0.00 | 0.00 | 0.00 | 61 | 1011.0 |
| 20260507141533 | 10 | 277 | 3.2 | 11.3 | 0.00 | 0.00 | 0.00 | 60 | 1011.2 |
| 20260507140030 | 10 | 5 | 1.6 | 11.3 | 0.00 | 0.00 | 0.00 | 60 | 1011.2 |
| 20260507134526 | 10 | 334 | 1.6 | 8.0 | 0.00 | 0.00 | 0.00 | 68 | 1011.5 |
| 20260507133026 | 9 | 304 | 3.2 | 14.5 | 0.00 | 0.00 | 0.00 | 70 | 1011.5 |
| 20260507131520 | 8 | 300 | 4.8 | 9.7 | 0.00 | 0.00 | 0.00 | 75 | 1011.7 |
| 20260507130017 | 8 | 308 | 3.2 | 12.9 | 0.00 | 0.00 | 0.00 | 79 | 1011.7 |
| 20260507124519 | 7 | 259 | 3.2 | 11.3 | 0.00 | 0.00 | 0.00 | 80 | 1011.7 |
| 20260507123014 | 7 | 274 | 1.6 | 11.3 | 0.00 | 0.00 | 0.00 | 81 | 1011.8 |
| 20260507121514 | 7 | 247 | 4.8 | 9.7 | 0.00 | 0.00 | 0.00 | 81 | 1011.5 |
| 20260507120009 | 7 | 223 | 0.0 | 9.7 | 0.00 | 0.03 | 0.00 | 82 | 1011.4 |
| 20260507114506 | 6 | 226 | 1.6 | 11.3 | 0.00 | 0.03 | 0.00 | 84 | 1011.6 |
| 20260507113015 | 6 | 277 | 1.6 | 8.0 | 0.00 | 0.03 | 0.00 | 85 | 1011.5 |
| 20260507111506 | 5 | 240 | 0.0 | 4.8 | 0.00 | 0.03 | 0.00 | 88 | 1011.4 |
| 20260507110007 | 5 | 240 | 0.0 | 0.0 | 0.00 | 0.03 | 0.00 | 90 | 1011.4 |
| 20260507104502 | 4 | 240 | 0.0 | 0.0 | 0.00 | 0.03 | 0.00 | 90 | 1011.2 |
| 20260507103001 | 5 | 240 | 0.0 | 0.0 | 0.00 | 0.03 | 0.00 | 87 | 1011.1 |
| 20260507101602 | 5 | 240 | 0.0 | 0.0 | 0.00 | 0.03 | 0.00 | 87 | 1010.9 |
| 20260507100120 | 5 | 240 | 0.0 | 0.0 | 0.00 | 0.03 | 0.00 | 86 | 1011.1 |
| 20260507094607 | 5 | 240 | 0.0 | 4.8 | 0.00 | 0.13 | 0.00 | 85 | 1011.0 |
| 20260507093057 | 5 | 236 | 0.0 | 4.8 | 0.00 | 0.13 | 0.00 | 86 | 1011.0 |
| 20260507091622 | 5 | 236 | 0.0 | 0.0 | 0.00 | 0.13 | 0.00 | 88 | 1011.1 |
| 20260507090055 | 5 | 236 | 0.0 | 0.0 | 0.00 | 0.13 | 0.00 | 87 | 1011.1 |
| 20260507084605 | 5 | 236 | 0.0 | 0.0 | 0.00 | 0.20 | 0.00 | 88 | 1011.2 |
| 20260507083053 | 5 | 236 | 0.0 | 0.0 | 0.00 | 0.20 | 0.00 | 90 | 1011.2 |
| 20260507081558 | 5 | 177 | 0.0 | 0.0 | 0.00 | 0.20 | 0.00 | 91 | 1011.3 |
| 20260507080051 | 5 | 177 | 0.0 | 0.0 | 0.00 | 0.20 | 0.00 | 90 | 1011.3 |